Terug naar catalogus

ATLAS 5 CENTAUR DEB

ActiefHEO
NORAD 49342·DEBRIS·🇺🇸 United States

Gelanceerd Oct 17, 2018 vanaf Cape Canaveral Space Force Station

Loading…

Volgende Passages (komende 24 uur)

TLE

VersSource: Space-Track

Epoch: Sep 6, 2026, 09:46 UTC

1 49342U 18079ET  26249.40722669 -.00000186  00000-0  00000-0 0  9992
2 49342  13.4378  18.1464 4763823 352.4093   2.2607  1.84615685 33864

Volg ATLAS 5 CENTAUR DEB in realtime met AllMySat

Download on the App Store